Iron Mountain, MI

6:16 PM CDT on October 21, 2019 (GMT -0500)
Ford

Weather History for KIMT - September, 2019

Change the Weather History Date:

Monday, September 16, 2019

  Actual Average Record
Temperature  
Mean Temperature 69 °F -  
Max Temperature 80 °F 66 °F 90 °F (1955)
Min Temperature 59 °F 43 °F 24 °F (1945)
Cooling Degree Days 4    
Growing Degree Days 19 (Base 50)    
Moisture  
Dew Point 60 °F    
Average Humidity 89    
Maximum Humidity 96    
Minimum Humidity 62    
Precipitation  
Precipitation 0.00 in - - ()
Sea Level Pressure  
Sea Level Pressure 30.11 in    
Wind  
Wind Speed 3 mph (SW)    
Max Wind Speed 9 mph    
Max Gust Speed -    
Visibility 5 miles    
Events Fog    
Averages and records for this station are not official NWS values.
T = Trace of Precipitation, MM = Missing Value Source: NWS Daily Summary

Daily Weather History Graph

Daily Weather History Graph

Search for Another Location

Airport or City:

Astronomy

Sep. 16, 2019 Rise Set
Actual Time 6:31 AM CDT 7:02 PM CDT
Civil Twilight 6:01 AM CDT 7:31 PM CDT
Nautical Twilight 5:26 AM CDT 8:07 PM CDT
Astronomical Twilight 4:49 AM CDT 8:43 PM CDT
Moon 8:30 PM CDT (9/16) 8:43 AM CDT (9/16)
Length of Visible Light 13h 30m
Length of Day
12h 30m
Waning Gibbous, 94% of the Moon is Illuminated
Sep 16
Waning Gibbous
Sep 21
Last Quarter
Sep 28
New
Oct 5
First Quarter
Oct 13
Full

Hourly Weather History & Observations

Time (CDT) Temp. Dew Point Humidity Pressure Visibility Wind Dir Wind Speed Gust Speed Precip Events Conditions
12:07 AM 62.1 °F 60.1 °F 93% 30.06 in 4.0 mi Calm Calm - N/A   Overcast
12:43 AM 62.1 °F 60.1 °F 93% 30.06 in 9.0 mi West 3.5 mph - N/A   Overcast
12:54 AM 62.1 °F 60.1 °F 93% 30.07 in 10.0 mi West 4.6 mph - N/A   Overcast
1:26 AM 62.1 °F 60.1 °F 93% 30.07 in 9.0 mi WNW 4.6 mph - N/A   Overcast
1:54 AM 62.1 °F 60.1 °F 93% 30.08 in 9.0 mi Calm Calm - N/A   Overcast
2:36 AM 61.0 °F 59.0 °F 93% 30.07 in 2.0 mi NW 3.5 mph - N/A   Overcast
2:49 AM 60.8 °F 59.0 °F 94% 30.07 in 1.0 mi West 3.5 mph - N/A   Overcast
2:54 AM 61.0 °F 59.0 °F 93% 30.07 in 0.8 mi West 3.5 mph - N/A   Overcast
3:24 AM 61.0 °F 59.0 °F 93% 30.07 in 0.2 mi NW 3.5 mph - N/A Fog Fog
3:54 AM 61.0 °F 59.0 °F 93% 30.08 in 0.2 mi West 4.6 mph - N/A Fog Fog
4:54 AM 60.1 °F 59.0 °F 96% 30.09 in 0.2 mi West 3.5 mph - N/A Fog Fog
5:02 AM 60.1 °F 59.0 °F 96% 30.09 in 0.2 mi West 3.5 mph - N/A Fog Fog
5:22 AM 60.1 °F 57.9 °F 93% 30.09 in 0.5 mi West 4.6 mph - N/A Fog Fog
5:30 AM 60.1 °F 57.9 °F 93% 30.09 in 0.2 mi WSW 4.6 mph - N/A Fog Fog
5:46 AM 60.1 °F 57.9 °F 93% 30.10 in 0.2 mi West 3.5 mph - N/A Fog Fog
5:54 AM 60.1 °F 59.0 °F 96% 30.10 in 0.2 mi Calm Calm - N/A Fog Fog
6:46 AM 59.0 °F 57.9 °F 96% 30.12 in 0.5 mi WNW 4.6 mph - N/A Fog Fog
6:54 AM 59.0 °F 57.9 °F 96% 30.12 in 0.5 mi West 4.6 mph - N/A Fog Fog
7:13 AM 59.0 °F 57.9 °F 96% 30.12 in 0.5 mi Calm Calm - N/A Fog Fog
7:28 AM 59.0 °F 57.9 °F 96% 30.12 in 1.2 mi Calm Calm - N/A   Overcast
7:38 AM 59.0 °F 57.9 °F 96% 30.13 in 0.5 mi WNW 4.6 mph - N/A Fog Fog
7:54 AM 59.0 °F 57.9 °F 96% 30.14 in 0.5 mi NW 3.5 mph - N/A Fog Fog
8:03 AM 59.0 °F 57.9 °F 96% 30.13 in 0.2 mi WNW 3.5 mph - N/A Fog Fog
8:13 AM 59.0 °F 57.0 °F 93% 30.13 in 1.0 mi WNW 4.6 mph - N/A   Overcast
8:20 AM 59.0 °F 57.9 °F 96% 30.13 in 3.0 mi NW 4.6 mph - N/A   Overcast
8:39 AM 59.0 °F 57.9 °F 96% 30.13 in 1.8 mi Calm Calm - N/A   Overcast
8:54 AM 60.1 °F 57.9 °F 93% 30.14 in 2.5 mi Calm Calm - N/A   Overcast
9:20 AM 61.0 °F 57.9 °F 90% 30.14 in 5.0 mi Calm Calm - N/A   Overcast
9:54 AM 64.0 °F 59.0 °F 84% 30.14 in 10.0 mi Calm Calm - N/A   Overcast
10:25 AM 66.0 °F 60.1 °F 81% 30.14 in 10.0 mi Calm Calm - N/A   Scattered Clouds
10:54 AM 68.0 °F 61.0 °F 78% 30.14 in 10.0 mi Calm Calm - N/A   Clear
11:54 AM 73.0 °F 62.1 °F 68% 30.12 in 10.0 mi Calm Calm - N/A   Clear
12:54 PM 75.9 °F 64.0 °F 67% 30.11 in 10.0 mi South 6.9 mph - N/A   Clear
1:54 PM 75.9 °F 64.0 °F 67% 30.11 in 10.0 mi SE 6.9 mph - N/A   Partly Cloudy
2:54 PM 79.0 °F 64.9 °F 62% 30.09 in 10.0 mi SSE 8.1 mph - N/A   Partly Cloudy
3:54 PM 78.1 °F 64.9 °F 64% 30.09 in 10.0 mi SSE 8.1 mph - N/A   Scattered Clouds
4:54 PM 77.0 °F 64.9 °F 66% 30.09 in 10.0 mi SE 8.1 mph - N/A   Clear
5:54 PM 73.9 °F 64.9 °F 73% 30.09 in 10.0 mi SE 8.1 mph - N/A   Clear
6:54 PM 71.1 °F 64.0 °F 78% 30.10 in 10.0 mi SE 5.8 mph - N/A   Clear
7:54 PM 68.0 °F 64.0 °F 87% 30.12 in 10.0 mi SE 8.1 mph - N/A   Clear
8:54 PM 66.0 °F 64.0 °F 93% 30.13 in 10.0 mi ESE 5.8 mph - N/A   Clear
9:17 PM 66.0 °F 63.0 °F 90% 30.13 in 10.0 mi SE 5.8 mph - N/A   Partly Cloudy
9:36 PM 64.9 °F 63.0 °F 93% 30.13 in 10.0 mi SE 6.9 mph - N/A   Mostly Cloudy
9:54 PM 64.9 °F 63.0 °F 93% 30.14 in 8.0 mi SE 5.8 mph - N/A   Overcast
10:54 PM 64.0 °F 62.1 °F 93% 30.13 in 3.0 mi SSE 6.9 mph - N/A   Overcast
11:04 PM 64.0 °F 62.1 °F 93% 30.13 in 2.5 mi SSE 6.9 mph - N/A   Overcast
11:25 PM 64.0 °F 62.1 °F 93% 30.13 in 3.0 mi SSE 5.8 mph - N/A   Overcast
11:44 PM 64.0 °F 62.1 °F 93% 30.13 in 7.0 mi SSE 9.2 mph - N/A   Overcast
11:54 PM 64.0 °F 62.1 °F 93% 30.13 in 6.0 mi SSE 6.9 mph - N/A   Overcast